Weather History for Fitchburg, MA

Change the Weather History Date:

Saturday, August 24, 2013

  Actual Average (KORH) Record (KORH)
Temperature  
Mean Temperature 66 °F 68 °F  
Max Temperature 79 °F 76 °F 92 °F (1947)
Min Temperature 53 °F 60 °F 44 °F (1971)
Degree Days  
Heating Degree Days 0 1  
Month to date heating degree days 15  
Since 1 June heating degree days 112  
Since 1 July heating degree days 29  
Cooling Degree Days 0 4  
Month to date cooling degree days 120  
Year to date cooling degree days 401  
Since 1 June cooling degree days 379  
Growing Degree Days 16 (Base 50)    
Moisture  
Dew Point 47 °F    
Average Humidity 57    
Maximum Humidity 84    
Minimum Humidity 26    
Precipitation  
Precipitation 0.00 in 0.11 in 2.62 in (1927)
Month to date precipitation 2.96  
Year to date precipitation 30.61  
Sea Level Pressure  
Sea Level Pressure 30.29 in    
Wind  
Wind Speed 3 mph (North)    
Max Wind Speed 9 mph    
Max Gust Speed -    
Visibility 10 miles    
Events      
T = Trace of Precipitation, MM = Missing Value Source: NWS Daily Summary

Daily Weather History Graph

Daily Weather History Graph

Search for Another Location

Airport:

Trip Planner

Search our weather history database for the weather conditions in past years. The results will help you decide how hot, cold, wet, or windy it might be!

Date:

Astronomy

Aug. 24, 2013 Rise Set
Actual Time 6:03 AM EDT 7:34 PM EDT
Civil Twilight 5:34 AM EDT 8:03 PM EDT
Nautical Twilight 4:58 AM EDT 8:39 PM EDT
Astronomical Twilight 4:20 AM EDT 9:17 PM EDT
Moon 9:19 PM EDT (8/24) 10:06 AM EDT (8/24)
Length of Visible Light 14h 29m
Length of Day
13h 30m
Waning Gibbous, 84% of the Moon is Illuminated
Aug 24
Waning Gibbous
Aug 28
Last Quarter
Sep 5
New
Sep 12
First Quarter
Sep 19
Full

Hourly Weather History & Observations

Time (EDT) Temp. Dew Point Humidity Pressure Visibility Wind Dir Wind Speed Gust Speed Precip Events Conditions
12:52 AM 59.0 °F 48.9 °F 69% 30.18 in 10.0 mi WNW 3.5 mph - N/A   Clear
1:52 AM 57.9 °F 48.9 °F 72% 30.19 in 10.0 mi Calm Calm - N/A   Clear
2:52 AM 53.1 °F 48.0 °F 83% 30.20 in 10.0 mi NW 5.8 mph - N/A   Clear
3:52 AM 54.0 °F 48.0 °F 80% 30.22 in 10.0 mi NW 3.5 mph - N/A   Clear
4:52 AM 54.0 °F 48.0 °F 80% 30.25 in 10.0 mi Calm Calm - N/A   Clear
5:52 AM 54.0 °F 48.0 °F 80% 30.27 in 10.0 mi Calm Calm - N/A   Clear
6:52 AM 54.0 °F 48.9 °F 83% 30.29 in 10.0 mi Calm Calm - N/A   Clear
7:52 AM 63.0 °F 48.9 °F 60% 30.30 in 10.0 mi NW 3.5 mph - N/A   Clear
8:52 AM 66.9 °F 46.0 °F 47% 30.32 in 10.0 mi North 5.8 mph - N/A   Clear
9:52 AM 69.1 °F 46.9 °F 45% 30.33 in 10.0 mi NE 6.9 mph - N/A   Clear
10:52 AM 71.1 °F 46.0 °F 41% 30.33 in 10.0 mi Variable 5.8 mph - N/A   Clear
11:52 AM 73.9 °F 44.1 °F 34% 30.32 in 10.0 mi ENE 9.2 mph - N/A   Clear
12:52 PM 73.9 °F 43.0 °F 33% 30.32 in 10.0 mi Calm Calm - N/A   Clear
1:52 PM 75.9 °F 41.0 °F 29% 30.32 in 10.0 mi ENE 8.1 mph - N/A   Clear
2:52 PM 77.0 °F 43.0 °F 30% 30.31 in 10.0 mi Variable 3.5 mph - N/A   Clear
3:52 PM 77.0 °F 39.9 °F 26% 30.31 in 10.0 mi Variable 3.5 mph - N/A   Clear
4:52 PM 78.1 °F 42.1 °F 28% 30.30 in 10.0 mi NE 3.5 mph - N/A   Clear
5:52 PM 77.0 °F 43.0 °F 30% 30.29 in 10.0 mi ENE 5.8 mph - N/A   Clear
6:52 PM 75.9 °F 43.0 °F 31% 30.30 in 10.0 mi Calm Calm - N/A   Clear
7:52 PM 63.0 °F 51.1 °F 65% 30.31 in 10.0 mi Calm Calm - N/A   Clear
8:52 PM 62.1 °F 53.1 °F 72% 30.33 in 10.0 mi Calm Calm - N/A   Clear
9:52 PM 61.0 °F 54.0 °F 78% 30.34 in 10.0 mi NNW 3.5 mph - N/A   Clear
10:52 PM 57.9 °F 53.1 °F 84% 30.35 in 10.0 mi Calm Calm - N/A   Clear
11:52 PM 57.9 °F 52.0 °F 81% 30.35 in 10.0 mi North 3.5 mph - N/A   Clear